Saint Martin Island, Sint Maarten

3:20 PM AST on December 07, 2016 (GMT -0400)
Princess Juliana International

Weather History for TNCM - October, 2011

Change the Weather History Date:

Saturday, October 1, 2011

  Actual Average Record
Temperature  
Mean Temperature 82 °F -  
Max Temperature 87 °F 87 °F 91 °F (2006)
Min Temperature 77 °F 78 °F 68 °F (2006)
Cooling Degree Days 17    
Growing Degree Days 32 (Base 50)    
Moisture  
Dew Point 77 °F    
Average Humidity 78    
Maximum Humidity 89    
Minimum Humidity 66    
Precipitation  
Precipitation 0.02 in - - ()
Sea Level Pressure  
Sea Level Pressure 29.94 in    
Wind  
Wind Speed 8 mph ()    
Max Wind Speed 13 mph    
Max Gust Speed -    
Visibility 7.3 miles    
Events Rain    
Averages and records for this station are not official NWS values.
T = Trace of Precipitation, MM = Missing Value Source: Averaged Metar Reports

Daily Weather History Graph

Daily Weather History Graph

Search for Another Location

Airport or City:

Trip Planner

Search our weather history database for the weather conditions in past years. The results will help you decide how hot, cold, wet, or windy it might be!

Date:

Astronomy

Oct. 01, 2011 Rise Set
Actual Time 6:02 AM AST 6:01 PM AST
Civil Twilight 5:41 AM AST 6:23 PM AST
Nautical Twilight 5:15 AM AST 6:48 PM AST
Astronomical Twilight 4:50 AM AST 7:13 PM AST
Moon 10:17 AM AST (10/1) 9:41 PM AST (10/1)
Length of Visible Light 12h 41m
Length of Day
11h 58m
Waxing Crescent, 24% of the Moon is Illuminated
Oct 1
Waxing Crescent
Oct 3
First Quarter
Oct 11
Full
Oct 19
Last Quarter
Oct 26
New

Hourly Weather History & Observations

Time (AST) Temp. Heat Index Dew Point Humidity Pressure Visibility Wind Dir Wind Speed Gust Speed Precip Events Conditions
12:00 AM 78.8 °F - 73.4 °F 83% 29.92 in 6.2 mi SSE 6.9 mph - N/A   Partly Cloudy
1:00 AM 80.6 °F 86.2 °F 75.2 °F 84% 29.89 in 6.2 mi SSE 3.5 mph - N/A   Partly Cloudy
2:00 AM 82 °F - 76 °F 79% 29.91 in 16 mi SSE 6.9 mph - -   Partly Cloudy
2:00 AM 82.4 °F 90.9 °F 77.0 °F 84% 29.89 in 6.2 mi SE 6.9 mph - N/A   Partly Cloudy
3:00 AM 82.4 °F 92.4 °F 78.8 °F 89% 29.89 in 6.2 mi SE 3.5 mph - N/A   Scattered Clouds
4:00 AM 82.4 °F 90.9 °F 77.0 °F 84% 29.89 in 6.2 mi SE 9.2 mph - N/A   Scattered Clouds
5:00 AM 83 °F - 77 °F 78% 29.91 in 16 mi SE 9.2 mph - -   Partly Cloudy
5:00 AM 82.4 °F 90.9 °F 77.0 °F 84% 29.89 in 6.2 mi SE 9.2 mph - N/A   Scattered Clouds
6:00 AM 82.4 °F 90.9 °F 77.0 °F 84% 29.92 in 6.2 mi SE 11.5 mph - N/A   Scattered Clouds
7:00 AM 82.4 °F 90.9 °F 77.0 °F 84% 29.95 in 6.2 mi SE 5.8 mph - N/A   Scattered Clouds
8:00 AM 84 °F - 77 °F 75% 29.96 in 16 mi SE 12.7 mph - -   Partly Cloudy
8:00 AM 84.2 °F 94.1 °F 77.0 °F 79% 29.98 in 6.2 mi SE 12.7 mph - N/A   Scattered Clouds
9:00 AM 86.0 °F 96.9 °F 77.0 °F 74% 29.98 in 6.2 mi SE 12.7 mph - N/A   Scattered Clouds
10:00 AM 86.0 °F 99.3 °F 78.8 °F 79% 29.98 in 6.2 mi SE 12.7 mph - N/A   Partly Cloudy
11:00 AM 87 °F - 78 °F 68% 29.98 in 25 mi SSE 10.4 mph - -   Scattered Clouds
11:00 AM 86.0 °F 96.9 °F 77.0 °F 74% 29.98 in 6.2 mi SSE 10.4 mph - N/A   Partly Cloudy
12:00 PM 87.8 °F 102.5 °F 78.8 °F 75% 29.95 in 6.2 mi SE 10.4 mph - N/A   Partly Cloudy
1:00 PM 86.0 °F 96.9 °F 77.0 °F 74% 29.95 in 6.2 mi SE 11.5 mph - N/A   Partly Cloudy
2:00 PM 87 °F - 78 °F 68% 29.93 in 25 mi SSE 11.5 mph - -   Scattered Clouds
2:00 PM 86.0 °F 99.3 °F 78.8 °F 79% 29.92 in 6.2 mi SE 11.5 mph - N/A   Partly Cloudy
3:00 PM 86.0 °F 96.9 °F 77.0 °F 74% 29.92 in 6.2 mi SE 12.7 mph - N/A   Partly Cloudy
4:00 PM 86.0 °F 96.9 °F 77.0 °F 74% 29.92 in 6.2 mi SE 11.5 mph - N/A   Partly Cloudy
5:00 PM 86 °F - 76 °F 66% 29.92 in 25 mi SE 8.1 mph - -   Scattered Clouds
5:00 PM 86.0 °F 96.9 °F 77.0 °F 74% 29.92 in 6.2 mi SE 8.1 mph - N/A   Partly Cloudy
6:00 PM 84.2 °F 94.1 °F 77.0 °F 79% 29.92 in 6.2 mi ESE 8.1 mph - N/A   Partly Cloudy
7:00 PM 84.2 °F 94.1 °F 77.0 °F 79% 29.92 in 6.2 mi ESE 6.9 mph - N/A   Partly Cloudy
8:00 PM 83 °F - 77 °F 77% 29.96 in 25 mi SE 5.8 mph - -   Scattered Clouds
8:00 PM 82.4 °F 90.9 °F 77.0 °F 84% 29.95 in 6.2 mi ESE 6.9 mph - N/A   Partly Cloudy
9:00 PM 84.2 °F 94.1 °F 77.0 °F 79% 29.95 in 6.2 mi ESE 9.2 mph - N/A   Partly Cloudy
10:00 PM 82.4 °F 90.9 °F 77.0 °F 84% 29.98 in 6.2 mi ESE 9.2 mph - N/A   Partly Cloudy
11:00 PM 83 °F - 76 °F 73% 29.98 in 25 mi ESE 11.5 mph - - Rain Light Rain Showers
11:00 PM 82.4 °F 89.5 °F 75.2 °F 79% 29.98 in 6.2 mi ESE 11.5 mph - N/A   Scattered Clouds